Natchitoches, LA

2:32 PM CST on December 17, 2017 (GMT -0600)
Natchitoches Regional

Weather History for KIER - February, 2013

Change the Weather History Date:

Thursday, February 7, 2013

  Actual Average Record
Temperature  
Mean Temperature 58 °F -  
Max Temperature 63 °F 55 °F 82 °F (2017)
Min Temperature 53 °F 35 °F 20 °F (1988)
Degree Days  
Heating Degree Days 7    
Growing Degree Days 8 (Base 50)    
Moisture  
Dew Point 56 °F    
Average Humidity 91    
Maximum Humidity 100    
Minimum Humidity 75    
Precipitation  
Precipitation 0.02 in - - ()
Sea Level Pressure  
Sea Level Pressure 29.95 in    
Wind  
Wind Speed 1 mph (SSW)    
Max Wind Speed 6 mph    
Max Gust Speed -    
Visibility 7 miles    
Events Fog    
Averages and records for this station are not official NWS values.
T = Trace of Precipitation, MM = Missing Value Source: NWS Daily Summary

Daily Weather History Graph

Daily Weather History Graph

Search for Another Location

Airport or City:

Trip Planner

Search our weather history database for the weather conditions in past years. The results will help you decide how hot, cold, wet, or windy it might be!

Date:

Astronomy

Feb. 07, 2013 Rise Set
Actual Time 7:01 AM CST 5:52 PM CST
Civil Twilight 6:35 AM CST 6:17 PM CST
Nautical Twilight 6:06 AM CST 6:46 PM CST
Astronomical Twilight 5:38 AM CST 7:15 PM CST
Moon 4:35 AM CST (2/7) 3:22 PM CST (2/7)
Length of Visible Light 11h 41m
Length of Day
10h 51m
Waning Crescent, 9% of the Moon is Illuminated
Feb 7
Waning Crescent
Feb 10
New
Feb 17
First Quarter
Feb 25
Full
Mar 4
Last Quarter

Hourly Weather History & Observations

Time (CST) Temp. Dew Point Humidity Pressure Visibility Wind Dir Wind Speed Gust Speed Precip Events Conditions
12:15 AM 58.5 °F 57.0 °F 95% 29.96 in 7.0 mi ESE 3.5 mph - N/A   Overcast
12:35 AM 57.6 °F 56.5 °F 96% 29.96 in 7.0 mi Calm Calm - N/A   Mostly Cloudy
12:55 AM 55.4 °F 55.2 °F 99% 29.96 in 2.0 mi Calm Calm - N/A   Mostly Cloudy
1:15 AM 54.1 °F 54.0 °F 99% 29.96 in 0.2 mi Calm Calm - N/A Fog Fog
1:35 AM 54.5 °F 54.5 °F 100% 29.96 in 0.8 mi Calm Calm - N/A   Overcast
1:55 AM 55.4 °F 55.4 °F 100% 29.96 in 3.0 mi Calm Calm - N/A   Overcast
2:15 AM 55.9 °F 55.9 °F 100% 29.95 in 4.0 mi Calm Calm - N/A   Overcast
2:35 AM 55.9 °F 55.9 °F 100% 29.94 in 3.0 mi Calm Calm - N/A   Overcast
2:55 AM 55.4 °F 55.4 °F 100% 29.93 in 0.5 mi Calm Calm - N/A Fog Fog
3:15 AM 54.5 °F 54.5 °F 100% 29.93 in 0.2 mi Calm Calm - N/A Fog Fog
3:35 AM 53.4 °F 53.4 °F 100% 29.92 in 0.2 mi Calm Calm - N/A Fog Fog
3:55 AM 53.6 °F 53.6 °F 100% 29.92 in 0.8 mi Calm Calm - N/A   Overcast
4:15 AM 54.0 °F 54.0 °F 100% 29.92 in 1.0 mi Calm Calm - N/A   Overcast
4:35 AM 54.5 °F 54.5 °F 100% 29.93 in 1.0 mi Calm Calm - N/A   Overcast
4:55 AM 55.0 °F 55.0 °F 100% 29.92 in 2.0 mi Calm Calm - N/A   Overcast
5:15 AM 55.4 °F 55.4 °F 100% 29.92 in 3.0 mi Calm Calm - N/A   Overcast
5:35 AM 55.6 °F 55.6 °F 100% 29.93 in 4.0 mi Calm Calm - N/A   Overcast
5:55 AM 55.6 °F 55.6 °F 100% 29.93 in 3.0 mi Calm Calm - N/A   Overcast
6:15 AM 55.8 °F 55.8 °F 100% 29.93 in 4.0 mi Calm Calm - N/A   Overcast
6:35 AM 55.8 °F 55.8 °F 100% 29.93 in 4.0 mi Calm Calm - N/A   Overcast
6:55 AM 55.9 °F 55.8 °F 99% 29.93 in 4.0 mi Calm Calm - N/A   Overcast
7:15 AM 55.8 °F 55.8 °F 100% 29.94 in 2.0 mi Calm Calm - N/A   Overcast
7:35 AM 55.8 °F 55.8 °F 100% 29.95 in 1.5 mi Calm Calm - N/A   Overcast
7:55 AM 56.1 °F 56.1 °F 100% 29.95 in 2.5 mi Calm Calm - N/A   Overcast
8:15 AM 56.5 °F 56.3 °F 99% 29.96 in 4.0 mi Calm Calm - N/A   Overcast
8:35 AM 56.8 °F 56.3 °F 98% 29.97 in 5.0 mi Calm Calm - N/A   Overcast
8:55 AM 57.6 °F 56.5 °F 96% 29.98 in 4.0 mi Calm Calm - N/A   Overcast
9:15 AM 58.1 °F 56.8 °F 96% 29.98 in 5.0 mi Calm Calm - N/A   Overcast
9:35 AM 59.0 °F 56.7 °F 92% 29.98 in 7.0 mi Calm Calm - N/A   Overcast
9:55 AM 59.9 °F 57.6 °F 92% 29.98 in 7.0 mi Calm Calm - N/A   Overcast
10:15 AM 60.8 °F 56.7 °F 86% 29.98 in 10.0 mi Calm Calm - N/A   Overcast
10:35 AM 61.0 °F 56.3 °F 85% 29.99 in 10.0 mi Calm Calm - N/A   Overcast
10:55 AM 61.0 °F 55.4 °F 82% 29.99 in 10.0 mi Calm Calm - N/A   Overcast
11:15 AM 61.3 °F 55.8 °F 82% 29.99 in 10.0 mi Calm Calm - N/A   Overcast
11:35 AM 61.3 °F 55.8 °F 82% 29.99 in 10.0 mi SW 3.5 mph - N/A   Overcast
11:55 AM 61.9 °F 55.8 °F 80% 29.99 in 10.0 mi SW 3.5 mph - N/A   Overcast
12:15 PM 61.7 °F 55.6 °F 80% 29.98 in 10.0 mi West 4.6 mph - N/A   Overcast
12:35 PM 61.3 °F 55.8 °F 82% 29.97 in 10.0 mi SSW 3.5 mph - N/A   Overcast
12:55 PM 61.7 °F 55.6 °F 80% 29.96 in 10.0 mi Calm Calm - N/A   Overcast
1:15 PM 62.6 °F 55.2 °F 77% 29.95 in 10.0 mi Calm Calm - N/A   Overcast
1:35 PM 62.8 °F 55.6 °F 77% 29.94 in 10.0 mi Calm Calm - N/A   Overcast
1:55 PM 62.8 °F 55.8 °F 78% 29.94 in 10.0 mi Calm Calm - N/A   Overcast
2:15 PM 63.5 °F 55.8 °F 76% 29.93 in 10.0 mi Calm Calm - N/A   Overcast
2:35 PM 63.5 °F 55.6 °F 75% 29.93 in 10.0 mi SW 4.6 mph - N/A   Overcast
2:55 PM 63.5 °F 55.8 °F 76% 29.92 in 10.0 mi Calm Calm - N/A   Overcast
3:15 PM 63.5 °F 55.6 °F 75% 29.92 in 10.0 mi Calm Calm - N/A   Overcast
3:35 PM 63.5 °F 55.9 °F 76% 29.92 in 10.0 mi Calm Calm - N/A   Overcast
3:55 PM 63.1 °F 56.1 °F 78% 29.92 in 10.0 mi Calm Calm - N/A   Overcast
4:15 PM 62.6 °F 56.1 °F 79% 29.92 in 10.0 mi SW 5.8 mph - N/A   Overcast
4:35 PM 62.6 °F 56.1 °F 79% 29.92 in 10.0 mi SW 3.5 mph - N/A   Overcast
4:55 PM 62.4 °F 55.8 °F 79% 29.91 in 10.0 mi Calm Calm - N/A   Overcast
5:35 PM 61.2 °F 56.5 °F 85% 29.94 in 10.0 mi West 4.6 mph - N/A   Overcast
5:55 PM 60.6 °F 56.3 °F 86% 29.94 in 10.0 mi SW 3.5 mph - N/A   Overcast
6:15 PM 60.3 °F 56.3 °F 87% 29.94 in 10.0 mi South 3.5 mph - N/A   Overcast
6:35 PM 59.9 °F 56.7 °F 89% 29.94 in 10.0 mi South 5.8 mph - N/A   Overcast
6:55 PM 59.5 °F 56.8 °F 91% 29.93 in 10.0 mi SE 4.6 mph - N/A   Overcast
7:15 PM 59.5 °F 56.8 °F 91% 29.93 in 10.0 mi SSE 4.6 mph - N/A   Overcast
7:35 PM 59.4 °F 56.8 °F 91% 29.93 in 10.0 mi South 4.6 mph - N/A   Overcast
7:55 PM 58.5 °F 56.5 °F 93% 29.93 in 10.0 mi South 3.5 mph - N/A   Overcast
8:15 PM 58.1 °F 56.3 °F 94% 29.93 in 10.0 mi SSE 3.5 mph - N/A   Overcast
8:35 PM 57.9 °F 55.8 °F 92% 29.93 in 10.0 mi SE 3.5 mph - N/A   Mostly Cloudy
8:55 PM 57.6 °F 55.8 °F 94% 29.93 in 10.0 mi Calm Calm - N/A   Mostly Cloudy
9:15 PM 57.2 °F 55.6 °F 94% 29.94 in 10.0 mi Calm Calm - N/A   Mostly Cloudy
9:35 PM 56.5 °F 55.8 °F 97% 29.95 in 10.0 mi Calm Calm - N/A   Overcast
9:55 PM 56.8 °F 56.3 °F 98% 29.96 in 10.0 mi Calm Calm - N/A   Overcast
10:15 PM 57.6 °F 56.3 °F 96% 29.97 in 10.0 mi Calm Calm - N/A   Overcast
10:35 PM 57.7 °F 56.3 °F 95% 29.97 in 10.0 mi Calm Calm - N/A   Overcast
10:55 PM 58.1 °F 56.5 °F 94% 29.97 in 10.0 mi SSW 3.5 mph - N/A   Overcast
11:15 PM 58.1 °F 56.7 °F 95% 29.97 in 10.0 mi Calm Calm - N/A   Overcast
11:35 PM 58.1 °F 56.5 °F 94% 29.98 in 10.0 mi Calm Calm - N/A   Overcast
11:55 PM 58.1 °F 56.7 °F 95% 29.97 in 10.0 mi Calm Calm - N/A   Overcast